COSMOS 374 DEB

Satellite information

Favourite Embed

Satellite Type and Status

DEBRISIN ORBIT

Key statistics

Satellite COSMOS 374 DEB at a glance.

Uptime

20041

Days in orbit

Revolutions

≈ 14.7

Per day

Orbit

LEO

Low Earth Orbit

Inclination

62.9

Latest

Satellite identification and parameters

Extended collection of information and parameters for COSMOS 374 DEB.

Object identification

Identified? True

Debris? True

Object name: COSMOS 374 DEB

International designator: 1970-089CW

Object number (NORAD): 14122

Object ID (CCSDS): 14122

Country: COMMONWEALTH OF INDEPENDENT STATES (CIS)

Current information (Y/N): Y

RCS size: SMALL

Orbital parameters

Period: 98.119 minutes

Inclination: 62.8778 deg

SMA: 7046.847 km

Apoapsis: 847.382 km

Periapsis: 490.043 km

RAAN: 225.9302 deg

Eccentricy: 0.02535453

Argument of periapsis: 346.2117 deg

Mean anomaly: 13.2124 deg

Mean motion: 14.67609357 rev/day

Mean motion (dot): 0.00072782 rev/day2

B* drag term: 0.0077749346 1/REarth

Two-line elements (TLE)

Creation date: Sept. 3, 2025, 10:15 a.m.

Reference frame: TEME

Reference center: EARTH

Epoch: Sept. 3, 2025, 1:04 a.m. UTC

TLE line 0: 0 COSMOS 374 DEB

TLE line 1: 1 14122U 70089CW 25246.04493029 .00072782 00000-0 77749-2 0 9996

TLE line 2: 2 14122 62.8778 225.9302 0253545 346.2117 13.2124 14.67609357198202

Live tracking on map

Real-time ground track for satellite COSMOS 374 DEB.

In-orbit conjunctions

A list of the most updated potential collisions computed for object COSMOS 374 DEB.

Target Orbit TCA Probability of collision Miss distance Type
PSLV R/B SSO 2025-04-01 10:00:29 0.0002701245 559.0 (m) ROCKET BODY
CZ-6A DEB LEO 2025-02-17 23:11:32 0.000131233 618.0 (m) DEBRIS
ARIANE 5 R/B SSO 2024-09-25 00:48:43 0.0003249123 169.0 (m) ROCKET BODY
FENGYUN 1C DEB SSO 2024-06-19 09:24:45 0.0001662326 267.0 (m) DEBRIS

Associated space launch

The I2P satellites were the first soviet coorbital ASAT system.

COSMOS 374 DEB was lifted into orbit during the mission ‘Tsiklon-2 | I2P 4’, on board a Tsiklon-2 space rocket.

The launch took place on Oct. 23, 1970, 4:42 a.m. from 90/20.

For more information about the launch, click the button.

Launch to space Tsiklon-2 | I2P 4
Tsiklon-2 | I2P 4

Agency: N/A

Status: Launch Successful

Launch date: Oct. 23, 1970, 4:42 a.m. UTC

Rocket: Tsiklon-2

Launch pad: 90/20

Location: Baikonur Cosmodrome, Republic of Kazakhstan

...

Latest news about this satellite

There are no fresh news available about this satellite. Check back as we update our databases every day.


Newsletter sign-up

Weekly statistics, charts and insights to help you stay on top of the space industry.